[[{"header":{"parameterUnit":"m.s-1","parameterCategory":1,"la1":30.2992,"la2":30.254,"lo1":-89.0895,"lo2":-89.0443,"dy":0.0025,"dx":0.0025,"nx":19,"ny":19,"refTime":"2026-04-19T03:00:00:Z","depth":0,"parameterNumber":2,"parameterNumberName":"U-component_of_WINDS"},"data":[0,0,0,-3.9218,-3.9219,-3.9255,-3.9255,-3.9321,-3.9322,0,0,0,0,0,0,0,0,0,0,0,-3.9221,-3.9221,-3.9218,-3.9219,-3.9255,-3.9255,-3.9321,-3.9322,0,0,0,0,0,0,0,0,0,0,0,-3.922,-3.9221,-3.9222,-3.922,-3.9255,-3.9255,-3.932,-3.9286,0,0,0,0,0,0,0,0,0,0,-3.9249,-3.9263,-3.9221,-3.9222,-3.922,-3.9255,-3.9255,-3.9284,-3.9289,-3.9314,0,-3.934,0,-3.9332,-3.9327,-3.9328,0,0,0,-3.921,-3.926,-3.9258,-3.9223,-3.922,-3.9255,-3.9236,-3.9286,-3.9291,-3.932,-3.9341,-3.9342,-3.9333,-3.9328,-3.9328,-3.9507,-3.9508,0,0,-3.9208,-3.9234,-3.9255,-3.9261,-3.9257,-3.9235,-3.9237,-3.9289,-3.9314,-3.9341,-3.9344,-3.9334,-3.9329,-3.9329,-3.9506,-3.9507,0,0,0,-3.9209,-3.9233,-3.9229,-3.9259,-3.9264,-3.9236,-3.9239,-3.9311,-3.9308,-3.9344,-3.9335,-3.9329,-3.933,-3.9504,-3.9506,-3.9595,0,0,0,-3.9207,-3.9233,-3.9229,-3.9245,-3.9264,-3.9288,-3.926,-3.9304,-3.9309,-3.9335,-3.9329,-3.9331,-3.9503,-3.9505,-3.959,-3.9634,0,0,0,-3.9214,-3.9234,-3.9243,-3.9246,-3.9262,-3.9287,-3.9286,-3.9305,-3.9304,-3.9328,-3.9331,-3.9502,-3.9505,-3.9585,-3.9625,-3.9689,0,0,0,-3.9229,-3.9322,-3.9245,-3.9346,-3.9262,-3.9341,-3.9285,-3.9343,-3.9374,-3.9329,-3.9503,-3.9506,-3.9583,-3.962,-3.9684,-3.9748,-3.9776,0,0,-3.9361,-3.9339,-3.9396,-3.9328,-3.9428,-3.9334,-3.9446,-3.945,-3.9428,-3.9482,-3.9486,-3.9592,-3.9625,-3.9688,-3.9927,-3.995,0,0,0,-3.9446,-3.9488,-3.9508,-3.9539,-3.9544,-3.9552,-3.9535,-3.9537,-3.9581,-3.9461,-3.963,-3.9649,-3.9685,-3.9715,-3.9734,-3.9764,-3.952,-3.952,-3.952,-3.9671,-3.9638,-3.9731,-3.9703,-3.9733,-3.9715,-3.9737,-3.9735,-3.9693,-3.9734,-3.975,-3.9899,-3.9935,-3.9949,-3.998,-3.978,-3.9781,-3.9781,-3.9781,-3.9862,-3.9916,-3.9858,-3.9927,-3.9892,-3.9949,-3.9936,-3.9904,-3.9953,-3.9884,-3.9914,-3.9843,-3.9976,-4.0001,-3.9787,-3.9786,-3.9786,-3.9785,-3.9784,-4.0007,-4.0027,-4.0027,-4.0068,-4.0103,-4.0071,-4.012,-4.0086,-4.0055,-4.0084,-4.0098,-4.0097,-4.0092,-4.0093,-4.0094,-4.0094,-4.0095,-4.0095,-4.0095,-4.0157,-4.0154,-4.02,-4.0213,-4.0228,-4.0244,-4.0227,-4.0241,-4.0248,-4.022,-4.022,-4.0175,-3.9994,-3.995,-4.0103,-4.0102,-4.0101,-4.01,-4.0099,-4.0365,-4.0312,-4.0384,-4.0399,-4.0412,-4.045,-4.0405,-4.0437,-4.0444,-4.047,-4.0418,-4.029,-4.0265,-4.0249,-4.0212,-4.0424,-4.0424,-4.0424,-4.0424,-4.0487,-4.0471,-4.0536,-4.0564,-4.0586,-4.0553,-4.0636,-4.0623,-4.0602,-4.0605,-4.0569,-4.0517,-4.0502,-4.0486,-4.0465,-4.043,-4.0693,-4.0693,-4.0693,-4.0614,-4.0598,-4.0675,-4.0653,-4.0661,-4.0668,-4.0745,-4.0778,-4.0743,-4.0703,-4.0606,-4.0594,-4.051,-4.0485,-4.0443,-4.0412,-4.0347,0,0]},{"header":{"parameterUnit":"m.s-1","parameterCategory":1,"la1":30.2992,"la2":30.254,"lo1":-89.0895,"lo2":-89.0443,"dy":0.0025,"dx":0.0025,"nx":19,"ny":19,"refTime":"2026-04-19T03:00:00:Z","depth":0,"parameterNumber":3,"parameterNumberName":"V-component_of_WINDS"},"data":[0,0,0,-7.1998,-7.2001,-7.2125,-7.2125,-7.2289,-7.2291,0,0,0,0,0,0,0,0,0,0,0,-7.1969,-7.1971,-7.1998,-7.2002,-7.2124,-7.2125,-7.2289,-7.2291,0,0,0,0,0,0,0,0,0,0,0,-7.1968,-7.197,-7.1972,-7.2002,-7.2124,-7.2125,-7.2289,-7.2192,0,0,0,0,0,0,0,0,0,0,-7.2071,-7.2052,-7.197,-7.1972,-7.2003,-7.2124,-7.2125,-7.2188,-7.2199,-7.2238,0,-7.2277,0,-7.2287,-7.2303,-7.2303,0,0,0,-7.1995,-7.2043,-7.207,-7.1972,-7.2004,-7.2124,-7.2067,-7.2194,-7.2206,-7.2252,-7.2279,-7.2285,-7.229,-7.2304,-7.2305,-7.2559,-7.256,0,0,-7.1988,-7.1994,-7.2062,-7.2079,-7.2064,-7.2063,-7.2071,-7.2201,-7.223,-7.228,-7.2289,-7.2292,-7.2305,-7.2306,-7.2558,-7.2559,0,0,0,-7.1973,-7.199,-7.2013,-7.2072,-7.2094,-7.2067,-7.2076,-7.2224,-7.2231,-7.229,-7.2294,-7.2306,-7.2308,-7.2556,-7.2558,-7.264,0,0,0,-7.1969,-7.1981,-7.2011,-7.2016,-7.2092,-7.2161,-7.2096,-7.2222,-7.2237,-7.2293,-7.2306,-7.231,-7.2554,-7.2557,-7.2634,-7.2676,0,0,0,-7.1958,-7.1979,-7.2,-7.2016,-7.2069,-7.2159,-7.2174,-7.2225,-7.224,-7.2303,-7.231,-7.2553,-7.2557,-7.2629,-7.2668,-7.2746,0,0,0,-7.1948,-7.2068,-7.2002,-7.2137,-7.2068,-7.2209,-7.2173,-7.2276,-7.2341,-7.2307,-7.2554,-7.2558,-7.2627,-7.2663,-7.2741,-7.2814,-7.2845,0,0,-7.2103,-7.2087,-7.2166,-7.211,-7.2265,-7.219,-7.2355,-7.2407,-7.2405,-7.2507,-7.2513,-7.2636,-7.2667,-7.2745,-7.3016,-7.3041,0,0,0,-7.2217,-7.2274,-7.2314,-7.2377,-7.2422,-7.2463,-7.2489,-7.2508,-7.2595,-7.246,-7.2684,-7.2703,-7.2748,-7.2783,-7.2804,-7.2843,-7.2574,-7.2574,-7.2573,-7.2443,-7.2438,-7.2569,-7.258,-7.2641,-7.2669,-7.2717,-7.2747,-7.2721,-7.2775,-7.2805,-7.297,-7.3011,-7.3027,-7.3067,-7.2842,-7.2843,-7.2843,-7.2843,-7.2669,-7.275,-7.2716,-7.2831,-7.2824,-7.2919,-7.295,-7.2929,-7.3015,-7.2946,-7.2986,-7.2912,-7.3054,-7.3089,-7.2849,-7.2848,-7.2847,-7.2847,-7.2846,-7.2817,-7.2855,-7.2879,-7.2972,-7.3043,-7.3048,-7.3134,-7.3123,-7.3114,-7.3153,-7.3184,-7.3183,-7.3181,-7.3169,-7.3169,-7.317,-7.317,-7.3171,-7.3171,-7.2962,-7.2986,-7.3062,-7.3121,-7.3161,-7.3213,-7.3242,-7.328,-7.332,-7.3305,-7.3305,-7.3274,-7.307,-7.3019,-7.318,-7.3178,-7.3177,-7.3176,-7.3176,-7.3194,-7.314,-7.3257,-7.3298,-7.3367,-7.344,-7.3426,-7.3505,-7.3535,-7.3578,-7.3539,-7.3389,-7.3371,-7.3354,-7.3312,-7.354,-7.354,-7.354,-7.354,-7.3319,-7.331,-7.3429,-7.3495,-7.3558,-7.3559,-7.3689,-7.3713,-7.3728,-7.3746,-7.3711,-7.3654,-7.3637,-7.3629,-7.3606,-7.3567,-7.3854,-7.3855,-7.3855,-7.3462,-7.3459,-7.3574,-7.3592,-7.3645,-7.3691,-7.3814,-7.3889,-7.3894,-7.3867,-7.376,-7.3746,-7.3654,-7.3624,-7.3595,-7.356,-7.3487,0,0]}]]